Wind_Speed
10 9 9 7 10 13 16 17 18 16 17 22 22 22 21 22 25 26 26 27 27 29 31 33 36 37 37 36 36 35 34 32 31 29 28 28 28 27 27 27 27 25 25 25
8 7 8 10 14 15 15 15 16 16 18 22 23 22 20 22 25 25 26 26 29 30 31 33 36 37 35 36 37 36 36 34 33 31 30 29 30 27 26 27 26 25 24 24
7 6 11 13 14 14 13 14 16 18 19 21 23 23 21 21 25 26 26 27 27 31 33 35 35 34 35 37 36 36 37 37 35 33 32 30 28 28 27 25 23 23 24 25
9 10 14 15 14 13 14 15 18 19 20 20 19 24 22 24 25 25 26 25 27 30 33 33 33 33 35 35 37 38 38 38 37 36 33 28 26 26 26 23 22 23 24 26
7 10 14 14 13 14 15 16 18 18 19 20 19 24 25 25 24 26 26 25 27 28 30 31 31 33 35 36 37 38 39 38 37 36 35 31 28 26 26 24 23 24 23 24
7 9 12 13 14 15 15 15 15 15 17 20 19 22 23 25 24 24 24 21 23 24 27 29 30 33 34 34 36 38 39 38 37 36 35 32 30 27 25 22 22 22 23 24
7 10 12 14 14 14 14 15 16 17 19 22 21 22 24 24 23 22 21 21 21 23 27 29 30 31 33 34 36 38 38 37 37 36 36 33 31 29 26 23 23 23 23 24
9 12 11 12 14 15 15 15 17 19 20 21 23 23 21 20 19 19 20 21 21 22 25 27 29 29 31 33 35 36 37 38 37 37 35 33 31 30 27 25 24 23 24 23
11 12 13 14 16 15 14 14 15 19 19 21 22 21 20 20 20 19 20 21 21 21 23 24 26 28 30 31 33 35 36 36 36 36 34 33 30 29 27 26 25 24 24 23
13 14 12 13 13 13 14 14 15 16 19 20 20 21 21 20 17 17 19 19 20 19 21 22 25 27 28 28 30 32 33 35 35 34 33 32 30 29 28 27 26 26 25 25
14 13 11 12 12 13 14 13 15 16 16 20 21 23 22 20 18 17 17 17 18 18 18 19 21 23 25 25 27 29 31 33 33 33 33 31 29 29 27 27 25 25 25 25
14 13 11 12 12 13 14 13 14 16 16 19 22 25 23 22 18 16 17 17 19 20 19 18 19 20 21 23 25 26 27 29 30 31 31 30 29 29 28 27 26 24 23 24
14 13 12 11 10 12 13 12 12 15 17 18 20 23 23 22 19 18 18 19 20 20 20 18 18 19 19 20 22 23 24 26 28 29 29 28 27 27 27 27 26 25 25 25
13 13 12 10 9 11 11 11 13 15 17 19 19 22 22 22 21 21 20 20 19 19 18 17 17 18 19 18 20 22 23 24 26 27 27 27 26 26 27 27 27 27 28 28
13 12 11 10 10 11 11 11 14 16 17 19 20 22 21 21 22 21 20 19 19 17 16 16 17 18 19 19 19 20 21 22 23 24 25 25 26 26 27 27 28 28 29 29
12 12 11 10 10 11 11 13 14 15 18 19 21 22 20 21 21 21 19 18 18 17 16 17 17 18 18 19 19 18 19 20 21 22 24 25 25 25 26 27 28 28 29 29
10 11 11 10 9 10 10 12 14 15 17 19 20 20 20 19 20 19 18 18 17 16 16 17 17 17 17 17 18 18 18 20 20 21 22 23 24 25 26 25 25 26 26 26
11 10 11 9 8 9 11 13 14 15 17 18 19 19 19 19 19 18 17 16 15 14 13 14 14 15 16 16 17 18 18 18 18 20 21 22 22 22 22 23 23 23 23 24
10 10 9 8 9 10 13 14 14 17 18 18 18 19 19 19 18 16 15 14 14 13 12 12 12 12 13 14 14 14 16 17 17 17 18 19 20 20 20 21 22 22 22 23
10 10 10 9 11 11 14 14 15 17 18 18 18 18 18 17 16 15 14 13 13 12 12 11 11 11 12 12 12 14 14 15 16 16 17 18 19 18 19 20 20 20 20 21
9 10 10 10 12 14 15 15 16 17 17 18 18 18 17 16 15 15 14 13 13 12 12 11 11 11 11 11 11 12 12 13 13 14 15 15 16 16 17 17 17 18 19 20
8 9 10 10 11 14 14 15 16 16 17 17 17 17 16 15 14 13 13 12 11 10 9 9 9 9 10 10 10 10 11 11 12 12 12 13 13 14 15 15 16 17 18 19
8 9 9 9 11 12 13 14 15 15 15 15 16 15 14 14 12 12 11 11 10 8 8 7 8 8 9 9 9 8 9 9 10 10 11 12 14 14 15 15 15 16 17 18
8 9 9 9 10 11 12 13 13 14 14 14 14 14 13 12 11 10 10 9 7 7 7 7 7 7 8 8 9 9 8 9 9 10 10 11 12 12 12 13 14 15 16 16
6 6 8 9 9 10 11 11 12 13 13 13 13 13 12 11 10 9 9 8 6 5 5 5 6 5 5 5 6 7 8 8 8 9 10 10 11 11 11 12 13 13 14 14
6 7 8 8 8 9 9 10 11 12 12 12 12 12 12 11 10 10 8 7 6 4 3 3 3 4 4 5 5 6 6 7 7 8 9 10 10 11 11 11 12 12 12 12
Wind_Direction
250 255 255 259 263 255 251 250 253 259 265 271 275 277 272 266 267 266 265 261 255 252 252 250 248 249 248 247 244 243 244 245 247 247 247 249 252 253 253 255 252 253 252 252
244 261 258 249 256 264 268 268 269 271 268 268 273 276 273 265 269 266 262 258 252 249 249 250 250 247 245 243 240 240 242 244 245 245 246 248 252 253 254 254 250 252 254 258
242 250 264 266 272 277 280 279 274 270 267 273 280 282 279 267 263 263 261 258 253 249 248 248 248 248 245 244 242 240 241 243 245 246 245 246 251 252 253 253 259 259 258 261
234 243 260 273 280 283 283 282 277 272 274 277 275 276 274 272 267 267 259 253 247 248 249 248 247 246 246 245 243 241 241 243 246 248 249 248 252 253 254 256 260 263 263 262
233 256 269 279 284 283 279 274 276 278 278 277 276 274 272 272 271 270 267 256 249 251 249 250 248 245 245 242 241 240 242 242 245 247 248 250 252 254 255 255 262 264 266 263
235 254 271 280 282 285 287 285 285 285 282 277 278 272 270 271 272 273 271 269 256 256 255 253 250 247 246 243 242 241 243 243 244 246 248 251 253 256 257 258 262 264 265 264
275 279 276 277 283 290 287 289 290 285 283 284 279 275 270 273 274 273 275 276 272 265 259 253 250 248 246 246 244 243 243 244 245 247 248 250 251 254 258 262 264 263 265 267
272 287 280 275 283 288 283 284 286 286 288 290 290 287 280 277 276 276 283 283 281 271 261 254 251 249 248 246 245 244 244 245 246 247 247 250 254 256 259 260 264 265 266 269
245 252 259 267 280 286 287 284 286 288 291 293 296 295 283 277 278 279 281 283 281 273 262 256 251 251 249 247 245 244 244 245 247 248 249 252 255 256 258 260 262 265 268 270
249 256 256 265 278 288 286 285 284 282 290 295 295 291 287 281 286 280 281 282 280 273 266 260 254 252 251 248 246 245 246 244 245 249 251 252 254 254 256 258 260 263 267 270
262 264 258 262 269 273 281 283 281 279 280 287 290 294 293 293 291 292 284 282 279 275 271 265 258 252 250 248 246 246 246 244 245 247 250 250 251 254 255 257 259 262 264 266
267 268 262 261 263 266 269 269 276 282 286 285 290 294 294 295 297 298 292 287 282 279 275 269 260 254 251 249 245 246 246 244 244 246 248 249 251 254 256 257 257 260 260 263
269 273 272 269 271 270 268 269 279 286 289 291 295 296 300 302 300 298 297 290 286 280 273 265 259 254 253 250 244 246 246 246 247 248 249 249 253 255 256 258 259 262 265 265
268 273 276 284 287 291 289 287 285 286 287 291 292 294 297 300 299 297 297 293 287 280 272 262 258 255 253 251 247 247 248 247 247 247 249 250 254 256 256 258 259 263 266 266
264 271 278 287 289 293 296 292 288 289 290 292 293 294 296 299 298 298 297 294 288 282 271 261 258 256 254 252 252 247 247 248 248 247 249 250 251 253 255 257 257 261 263 264
264 271 277 285 289 289 290 290 289 289 292 294 295 298 299 300 299 299 298 294 288 281 271 262 258 258 255 254 253 250 249 249 248 247 248 249 250 251 255 256 257 258 261 263
271 274 276 279 279 282 295 293 290 294 296 299 301 303 304 304 302 300 298 294 288 281 275 266 260 257 253 251 251 252 250 247 246 247 248 248 251 252 253 254 255 257 259 263
269 273 279 285 290 293 298 299 299 301 303 303 307 308 308 306 304 302 302 296 292 286 278 269 264 258 254 253 252 250 251 249 249 250 251 251 252 254 255 255 259 260 262 263
277 280 284 288 287 291 294 301 307 310 309 310 310 310 309 307 305 304 302 296 293 289 281 276 269 261 255 254 252 248 249 249 250 251 251 250 252 254 256 260 261 263 262 263
275 276 279 289 299 301 296 306 310 311 311 313 315 313 311 309 306 305 302 297 294 287 283 279 274 268 263 261 256 248 250 249 250 252 253 252 253 256 260 263 265 266 267 268
276 280 282 291 295 295 306 312 314 313 313 316 318 316 313 311 309 307 304 298 293 285 280 276 274 271 263 260 258 256 251 250 250 250 252 253 255 259 261 263 267 269 270 273
268 273 279 283 288 296 308 312 315 316 317 319 320 319 317 314 310 307 306 301 297 290 281 275 268 264 260 259 257 251 249 251 254 255 255 258 262 264 263 267 270 273 275 277
261 272 280 291 294 302 309 315 318 320 322 324 326 327 323 319 315 312 312 308 302 295 286 279 270 265 262 261 262 256 257 258 259 259 260 264 267 267 269 270 273 276 279 280
258 269 281 291 299 308 315 320 322 325 328 331 334 334 332 328 324 320 317 315 309 303 289 285 279 272 263 259 255 255 256 261 264 266 266 267 268 271 273 275 278 280 281 282
258 272 280 290 301 312 321 327 330 334 336 339 343 343 344 340 337 334 330 325 321 316 298 288 286 273 264 263 259 260 261 263 266 267 268 271 273 274 277 280 282 284 284 285
246 261 273 291 306 318 329 335 340 343 345 347 351 355 355 354 353 353 353 348 343 338 322 312 303 279 269 269 271 268 267 267 270 274 276 276 276 277 279 282 284 285 286 287
Height
5793 5796 5796 5798 5799 5800 5800 5801 5801 5802 5801 5799 5797 5796 5796 5795 5794 5793 5793 5792 5792 5792 5793 5793 5794 5795 5797 5800 5803 5806 5808 5811 5814 5816 5818 5819 5821 5823 5824 5825 5828 5829 5831 5832
5791 5792 5794 5794 5796 5795 5795 5795 5796 5797 5796 5794 5791 5790 5790 5788 5787 5787 5786 5784 5785 5785 5786 5785 5786 5787 5790 5791 5795 5799 5802 5805 5808 5810 5812 5813 5816 5817 5818 5819 5821 5824 5826 5828
5788 5791 5791 5791 5791 5791 5791 5791 5791 5791 5790 5787 5786 5785 5785 5783 5781 5780 5780 5779 5779 5779 5779 5778 5779 5779 5782 5783 5787 5791 5795 5798 5800 5802 5804 5806 5809 5812 5814 5816 5817 5819 5821 5823
5786 5788 5788 5787 5787 5787 5787 5787 5786 5785 5784 5782 5782 5779 5779 5777 5774 5773 5772 5771 5771 5771 5772 5772 5773 5773 5775 5778 5781 5785 5788 5791 5793 5796 5799 5801 5804 5807 5809 5811 5813 5814 5816 5817
5783 5784 5784 5784 5784 5783 5783 5782 5781 5779 5778 5777 5776 5775 5773 5770 5769 5767 5764 5763 5764 5765 5765 5766 5767 5768 5769 5772 5775 5778 5781 5784 5787 5790 5793 5796 5798 5801 5804 5806 5807 5809 5810 5812
5779 5781 5781 5781 5780 5779 5778 5777 5776 5774 5773 5772 5771 5769 5767 5764 5762 5760 5758 5757 5757 5759 5760 5761 5762 5763 5764 5766 5769 5771 5773 5777 5781 5784 5787 5791 5793 5796 5797 5800 5802 5803 5805 5807
5776 5776 5776 5776 5775 5775 5775 5774 5772 5771 5769 5767 5765 5762 5761 5758 5756 5755 5753 5752 5752 5754 5755 5755 5756 5757 5758 5760 5762 5764 5767 5771 5774 5778 5781 5784 5787 5790 5793 5795 5796 5797 5799 5801
5774 5775 5772 5772 5773 5772 5771 5770 5769 5767 5765 5762 5759 5757 5755 5752 5750 5749 5749 5748 5748 5749 5749 5749 5750 5751 5752 5754 5756 5758 5761 5765 5768 5771 5774 5778 5781 5784 5787 5789 5790 5792 5794 5795
5771 5772 5771 5770 5769 5769 5767 5766 5766 5763 5761 5758 5756 5753 5750 5747 5746 5745 5745 5744 5743 5743 5743 5744 5745 5745 5746 5748 5750 5753 5755 5759 5762 5766 5769 5772 5775 5778 5781 5783 5785 5787 5788 5790
5766 5767 5767 5767 5766 5765 5765 5763 5762 5760 5758 5755 5753 5750 5746 5742 5742 5740 5740 5740 5739 5738 5738 5738 5739 5740 5741 5743 5745 5747 5750 5753 5756 5760 5763 5766 5769 5772 5775 5778 5780 5781 5783 5785
5763 5763 5763 5763 5762 5762 5761 5760 5758 5757 5755 5753 5750 5748 5743 5741 5739 5738 5736 5735 5735 5735 5735 5734 5734 5734 5736 5738 5740 5742 5745 5747 5751 5755 5758 5761 5763 5766 5769 5771 5773 5775 5777 5779
5759 5759 5759 5758 5758 5757 5757 5756 5755 5754 5752 5750 5747 5746 5740 5737 5735 5734 5733 5732 5731 5731 5731 5730 5729 5730 5732 5733 5735 5737 5739 5742 5746 5749 5752 5755 5757 5760 5763 5765 5767 5769 5771 5772
5755 5756 5755 5755 5756 5754 5753 5752 5751 5750 5748 5746 5744 5743 5737 5734 5732 5730 5729 5728 5727 5727 5726 5726 5726 5726 5728 5729 5731 5733 5735 5737 5741 5744 5747 5749 5752 5754 5756 5759 5761 5763 5765 5766
5753 5753 5753 5752 5751 5750 5749 5749 5749 5748 5746 5744 5741 5738 5736 5732 5730 5728 5726 5725 5724 5722 5721 5721 5722 5722 5724 5725 5727 5729 5731 5733 5736 5738 5741 5743 5746 5748 5750 5753 5755 5757 5759 5760
5750 5750 5749 5749 5748 5747 5747 5747 5746 5744 5742 5740 5737 5734 5732 5730 5727 5725 5723 5721 5720 5718 5717 5718 5718 5719 5720 5721 5723 5725 5726 5728 5731 5733 5736 5738 5740 5742 5744 5746 5749 5751 5752 5753
5747 5747 5747 5746 5746 5745 5745 5744 5742 5741 5739 5736 5734 5731 5728 5726 5724 5722 5719 5718 5716 5715 5714 5714 5715 5715 5716 5717 5719 5720 5722 5724 5726 5728 5731 5733 5735 5737 5739 5740 5742 5744 5745 5747
5743 5744 5744 5743 5743 5743 5742 5741 5739 5737 5735 5733 5731 5728 5725 5722 5720 5718 5715 5714 5712 5711 5711 5711 5711 5711 5712 5713 5715 5717 5718 5720 5722 5724 5726 5728 5729 5731 5733 5734 5736 5737 5739 5740
5741 5742 5741 5740 5741 5740 5741 5738 5736 5734 5732 5729 5727 5725 5722 5719 5717 5714 5712 5711 5709 5708 5707 5707 5707 5708 5709 5710 5711 5712 5714 5716 5717 5719 5721 5723 5724 5725 5727 5728 5730 5731 5732 5734
5740 5740 5739 5739 5738 5738 5737 5735 5733 5731 5729 5726 5724 5721 5718 5715 5713 5711 5709 5708 5707 5706 5705 5705 5705 5705 5705 5706 5707 5708 5710 5712 5713 5715 5716 5718 5720 5721 5722 5724 5725 5726 5727 5728
5738 5738 5738 5737 5736 5735 5734 5732 5730 5729 5726 5723 5720 5717 5715 5712 5711 5709 5706 5705 5704 5703 5702 5702 5702 5702 5703 5703 5704 5705 5706 5708 5709 5711 5713 5714 5715 5716 5718 5719 5720 5721 5722 5723
5736 5736 5736 5735 5734 5733 5731 5729 5729 5728 5725 5720 5717 5714 5711 5709 5708 5706 5703 5702 5701 5700 5699 5699 5699 5699 5700 5700 5701 5702 5704 5705 5706 5707 5709 5710 5711 5712 5713 5715 5715 5716 5717 5718
5734 5735 5734 5733 5733 5733 5730 5728 5727 5725 5721 5718 5715 5711 5709 5706 5704 5702 5700 5699 5698 5697 5697 5696 5696 5697 5697 5698 5699 5700 5701 5702 5703 5704 5705 5706 5708 5709 5710 5710 5711 5712 5712 5713
5733 5733 5732 5732 5733 5730 5728 5726 5724 5722 5719 5716 5713 5709 5707 5704 5702 5700 5698 5697 5696 5695 5695 5694 5694 5694 5695 5696 5697 5697 5698 5699 5700 5701 5702 5703 5704 5705 5706 5707 5707 5708 5708 5708
5731 5731 5731 5731 5730 5728 5727 5725 5723 5720 5717 5714 5711 5708 5705 5703 5700 5699 5697 5695 5694 5693 5693 5693 5692 5693 5693 5694 5695 5695 5696 5697 5698 5699 5699 5700 5701 5702 5702 5703 5703 5703 5703 5703
5729 5730 5730 5730 5729 5727 5726 5724 5721 5719 5716 5713 5710 5707 5705 5702 5700 5698 5696 5695 5693 5693 5692 5692 5691 5691 5692 5692 5693 5694 5694 5695 5696 5696 5697 5697 5698 5698 5699 5699 5699 5699 5699 5699
5729 5730 5730 5730 5728 5727 5725 5723 5721 5718 5716 5713 5710 5708 5705 5702 5700 5698 5696 5694 5693 5692 5692 5691 5691 5691 5691 5691 5692 5692 5693 5693 5694 5694 5694 5695 5695 5695 5696 5696 5696 5696 5696 5696